Regional Weather Roundup
Issued by NWS

Home | Current Version | Previous Version | Text Only | Print | Product List | Glossary Off
Versions: 1 2 3 4 5 6 7 8 9 10 11 12 13 14 15 16 17 18 19 20 21 22 23 24 25 26 27 28 29 30 31 32 33 34 35 36 37 38 39 40 41 42 43 44 45 46 47 48 49 50

000
ASUS45 KBOU 201307
RWRCO

WEATHER ROUNDUP FOR COLORADO
NATIONAL WEATHER SERVICE DENVER/BOULDER CO
600 AM MST THU NOV 20 2014

NOTE: "FAIR" INDICATES FEW OR NO CLOUDS BELOW 12000 FEET WITH NO
SIGNIFICANT WEATHER AND/OR OBSTRUCTIONS TO VISIBILITY.

COZ001>005-013-030-031-201400-
...NORTHWEST COLORADO...

CITY           SKY/WX    TMP DP  RH WIND       PRES   REMARKS
CRAIG          PTCLDY    12   7  80 SW3       30.12R
HAYDEN         PTCLDY    18   9  68 E9        30.10S WCI   6
MEEKER         MOCLDY    25  16  68 E3        30.11S
MOUNT WERNER   NOT AVBL
STEAMBOAT SPGS PTCLDY    13  10  86 CALM      30.12S
WALDEN         CLOUDY    28  10  47 SE8       30.07R WCI  20
$$

COZ006>008-011-201400-
...WEST CENTRAL VALLEYS...

CITY           SKY/WX    TMP DP  RH WIND       PRES   REMARKS
GRAND JUNCTION PTCLDY    26  13  57 E5        30.13S WCI  20
MONTROSE       PTCLDY    18  13  80 SE3       30.16S
EAGLE          CLOUDY    18  14  86 CALM      30.19R
RIFLE          MOCLDY    22  17  81 CALM      30.16S
DELTA          PTCLDY    22  14  73 N3        30.16S
NUCLA          CLOUDY    28  21  74 CALM      30.17S
$$

COZ017>023-064>068-201400-
...SOUTHWEST COLORADO...

CITY           SKY/WX    TMP DP  RH WIND       PRES   REMARKS
DURANGO        CLEAR     19  15  84 CALM      30.13S
CORTEZ         PTCLDY    21  16  81 NE5       30.13S WCI  15
PAGOSA SPRINGS PTCLDY    22  17  80 CALM      30.13S
TELLURIDE      PTCLDY    21   7  55 SE7       30.15F WCI  13
WOLF CREEK PAS MOCLDY    25  -8  24 W5        30.17R WCI  19
$$

COZ009-010-012-014-032>034-037-058>063-201400-
...CENTRAL COLORADO...

CITY           SKY/WX    TMP DP  RH WIND       PRES   REMARKS
ASPEN          PTCLDY    17  10  74 SW7       30.12S WCI   8
BUENA VISTA    PTCLDY    25   8  48 NW5       30.09R WCI  19
COPPER MTN     MOCLDY    23  -9  23 W15       30.13S WCI  10
BERTHOUD PASS  CLOUDY    14   9  79 NW22G30   30.10R WCI  -4
COTTONWOOD PAS PTCLDY    32 -15  12 W8G18     30.09R WCI  25
GUNNISON       PTCLDY     5  -4  66 CALM      30.22S
KREMMLING      MOCLDY    10   5  79 CALM      30.16S
LEADVILLE      MOCLDY    19   0  43 NE7       30.10R WCI  10
SALIDA         PTCLDY    32   3  29 NW9       30.15S WCI  24
SUNLIGHT       MOCLDY    23   5  46 SW3       30.15S
WILKERSON PASS CLOUDY    28 -13  16 NW6       30.13R WCI  22
$$

COZ069>075-201400-
...SAN LUIS VALLEY/SANGRE DE CRISTO MOUNTAINS...

CITY           SKY/WX    TMP DP  RH WIND       PRES   REMARKS
ALAMOSA        MOCLDY     7   3  84 CALM      30.13S
LA VETA PASS   CLOUDY    21   7  53 SW10G22   30.09R WCI  10
SAGUACHE       PTCLDY    19   9  63 CALM      30.14R
$$

COZ035-036-038>040-201400-
...NORTHERN COLORADO FRONT RANGE...

CITY           SKY/WX    TMP DP  RH WIND       PRES   REMARKS
DENVER INTL AP PTCLDY    23  17  78 S3        29.99R
DMNS CITY PARK   N/A     25  18  74 SW3G9     29.99S
AURORA         PTCLDY    23  14  68 S9        29.99S WCI  13
FRONT RANGE AP PTCLDY    27  19  74 S13       29.98S WCI  16
ERIE MUNI ARPT PTCLDY    19  17  90 CALM      29.99S
BOULDER MUN AP PTCLDY    27  18  69 CALM      29.98R
CENTENNIAL     PTCLDY    26  13  57 S9        29.98S WCI  17
BROOMFIELD     CLEAR     30  19  64 CALM      29.98S
FORT COLLINS   PTCLDY    23  19  86 N7        30.00S WCI  15
LONGMONT       PTCLDY    20  16  84 CALM      30.02R
$$

COZ041-046-047-076>085-087-088-201400-
...PIKES PEAK/PALMER DIVIDE AND SOUTHERN FOOTHILLS...

CITY           SKY/WX    TMP DP  RH WIND       PRES   REMARKS
COLO. SPRINGS  MOCLDY    32  14  47 N8        30.00R WCI  25
A. F. ACADEMY  MOCLDY    26   7  44 N7        30.00R WCI  19
ELLICOTT       MOCLDY    31  11  43 NE6       29.98R WCI  25
FALCON         NOT AVBL
FORT CARSON    CLOUDY    32  15  50 N13       29.98R WCI  22
LIMON          PTCLDY    16  11  80 NW5       29.99S WCI   9
MONUMENT HILL  PTCLDY    27   7  43 S8        30.00R WCI  18
TRINIDAD       PTCLDY    26  18  71 W8        30.01R WCI  18
$$

COZ042>045-048>051-090-091-201400-
...NORTHEAST COLORADO...

CITY           SKY/WX    TMP DP  RH WIND       PRES   REMARKS
GREELEY ARPT   PTCLDY    16   9  73 W3        30.01S
AKRON          MOCLDY    21  17  84 W12       29.98S WCI   9
BURLINGTON     PTCLDY    17  12  80 W7        30.00S WCI   8
WRAY           MOCLDY    13  10  87 W6        30.01S WCI   3
STERLING       MOCLDY    14  10  85 CALM      30.01S
HOLYOKE        MOCLDY    18  14  86 NW7       30.01S WCI   8
FORT MORGAN    MOCLDY    15  12  88 W9        30.01R WCI   3
$$

COZ086-089-092>099-201400-
...SOUTHEAST COLORADO...

CITY           SKY/WX    TMP DP  RH WIND       PRES   REMARKS
PUEBLO         PTCLDY    25  21  85 W3        29.99R
LA JUNTA       PTCLDY    26  22  84 NW9       30.00S WCI  17
LAMAR          MOCLDY    26  24  92 NW6       29.99S WCI  19
SPRINGFIELD      N/A     25  20  81 W6        29.97S WCI  18
$$



USA.gov is the U.S. government's official web portal to all federal, state and local government web resources and services.